Simultaneous Nadir Overpasses (SNOs) Predictions

Prediction of SNOs between NPP and TERRA Satellite Orbit:

Table of predicted SNOs for the next 14.0 days since TLE Epoch: 8/31/2024
Index Date (NPP) Time (NPP) Lat,Lon (NPP) SZA (NPP ) Date (TERRA) Time (TERRA) Lat,Lon (TERRA) SZA (TERRA ) Distance(km) Time Diff (sec)
1 08/31/2024 22:25:17 -72.98, 14.96 115.10 08/31/2024 22:26:27 -72.88, 16.12 115.27 39.63 70
2 08/31/2024 23:15:54 72.53,-176.80 64.43 08/31/2024 23:15:53 72.55,-176.83 64.44 1.64 1
3 09/01/2024 00:06:32 -72.23, -8.88 115.89 09/01/2024 00:05:20 -72.26, -9.69 115.81 27.57 72
4 09/03/2024 10:28:18 72.57, 15.02 65.37 09/03/2024 10:28:40 72.57, 14.98 65.36 1.32 22
5 09/03/2024 11:19:01 -72.52,-177.55 114.68 09/03/2024 11:18:03 -72.51,-177.48 114.69 2.79 58
6 09/05/2024 21:40:42 72.63,-153.19 66.33 09/05/2024 21:41:25 72.64,-153.12 66.33 2.85 43
7 09/05/2024 22:31:24 -72.52, 14.35 113.78 09/05/2024 22:30:49 -72.53, 14.33 113.76 1.19 35
8 09/08/2024 08:53:05 72.65, 38.67 67.27 09/08/2024 08:54:10 72.65, 38.67 67.26 0.38 65
9 09/08/2024 09:43:47 -72.54,-153.79 112.84 09/08/2024 09:43:34 -72.54,-153.87 112.83 2.78 13
10 09/10/2024 20:05:38 73.20,-130.59 68.79 09/10/2024 20:06:46 73.07,-128.75 68.58 60.98 68
11 09/10/2024 20:56:10 -72.58, 38.04 111.88 09/10/2024 20:56:17 -72.60, 38.01 111.86 2.58 7
12 09/10/2024 21:46:52 72.40,-154.29 67.95 09/10/2024 21:45:39 72.44,-154.60 68.02 11.59 73
13 09/13/2024 08:08:33 -72.63,-130.17 110.88 09/13/2024 08:08:59 -72.65,-130.12 110.88 1.89 26
14 09/13/2024 08:59:16 72.51, 37.40 69.00 09/13/2024 08:58:20 72.53, 37.35 69.04 2.97 56



Historial Predications of SNOs between NPP and TERRA
